Location: Aalsum
(53.3404°N, 6.0062°E)
Time: 10:17:33
(UTC+00:00)

Cosmos 1455 Rocket - Pass Details

Date: 28 January 2023
Orbit: 603 x 628 km, 82.5° (Epoch: 19 March)

Event Time Altitude Azimuth Distance (km) Brightness Sun altitude
Rises 17:31:20 0° 344° (NNW) 2,903 6.5 -11.9°
Reaches altitude 10° 17:33:38 10° 339° (NNW) 1,988 5.7 -12.2°
Maximum altitude 17:37:51 48° 266° (W) 811 4.2 -12.8°
Drops below altitude 10° 17:42:00 10° 192° (SSW) 1,958 6.0 -13.4°
Sets 17:44:15 0° 187° (S) 2,854 6.7 -13.8°
